User: anonymous   Login
Location: Unspecified
(0.0000°N, 0.0000°E)
Time: 01:44:00
(UTC+02:00)
Language:

Ariane 42L R/B - Orbit

View from above orbital plane
View from above orbital plane
View from above satellite
View from above satellite

Ground track
Ground track

The orbit data is extracted from the following two-line orbital elements,

1 26299U 00020B   16152.46269017  .00004545  00000-0  76147-3 0  9996
2 26299   7.5307 272.7468 5968519 303.7388  12.9827  4.09848089203399
Epoch (UTC): 31 May 2016 11:06:16
Eccentricity: 0.5968519
inclination: 7.5307°
perigee height: 271 km
apogee height: 19960 km
right ascension of ascending node: 272.7468°
argument of perigee: 303.7388°
revolutions per day: 4.09848089
mean anomaly at epoch: 12.9827°
orbit number at epoch: 20339

The dashed part of the orbit path shows where the satellite is in the earth's shadow,  

DLR